Terminal Aerodrome Forecast
Issued by NWS Mobile, AL

Home | Current Version | Previous Version | Text Only | Print | Product List | Glossary On
Versions: 1 2 3 4 5 6 7 8 9 10 11 12
000
FTUS44 KMOB 161739
TAFPNS
TAF
KPNS 161739Z 1618/1718 06005KT P6SM SCT110 BKN250
     FM170500 11009KT P6SM OVC050
     FM171500 14012KT P6SM OVC020=

USA.gov is the U.S. government's official web portal to all federal, state and local government web resources and services.